Preview of NWS' New Version of Forecast
This preview is not operational and should not be used for support decisions.

Regional Weather Roundup (RWR)

Issued by National Weather Service (NWS)

                            
000
ASCA42 TJSJ 240310
RWRPR 
PUERTO RICO/U.S. VIRGIN ISLANDS HOURLY WEATHER ROUNDUP
NATIONAL WEATHER SERVICE SAN JUAN PR
1100 PM AST THU MAY 23 2019

PRZ001>002-007>008-010-240400-
PUERTO RICO
  
CITY           SKY/WX    TMP DP  RH WIND       PRES   REMARKS
SAN JUAN LMM   PTCLDY    81  73  78 CALM      29.97S                  
CEIBA          MOCLDY    81  72  74 SE6       29.99S                  
$$

VIZ001>002-240400-
U.S. VIRGIN ISLANDS
  
CITY           SKY/WX    TMP DP  RH WIND       PRES   REMARKS
CHARLOTTE AMA  CLOUDY    81  75  83 E8        29.97F                  
CHRISTIANSTED  CLOUDY    77  70  78 SE9       29.99S                  
$$

HOURLY WEATHER ROUNDUP FOR THE NEWS MEDIA
  
CITY           SKY/WX    TMP DP  RH WIND       PRES   REMARKS
ORLANDO        FAIR      74  65  73 E9        30.17R                  
NEW YORK       MOCLDY    61  61 100 S7        29.85                   
NEWARK         MOCLDY    69  66  90 SW10      29.85F                  
CHICAGO        FAIR      67  51  56 SW3       30.08R                  
HARTFORD       CLOUDY    59  55  87 SW18G25   29.78F                  
BOSTON         CLOUDY    62  56  80 SW14      29.75F                  
DALLAS         CLEAR     84  71  65 SE18G28   29.93R                  
PHILADELPHIA   CLOUDY    70  65  84 SW9       29.90F                  
LOS ANGELES    PTCLDY    60  51  72 W7        30.01R                  
WASHINGTON DC  FAIR      70  68  93 CALM      29.97S